Location: Beaurevoir
(49.9971°N, 3.3085°E)
Time: 20:06:47
(UTC+00:00)

Cosmos 841 Rocket - Pass Details

Date: 23 May 2024
Orbit: 744 x 770 km, 74.0° (Epoch: 16 June)

Event Time Altitude Azimuth Distance (km) Brightness Sun altitude
Rises 00:23:47 0° 339° (NNW) 3,231 7.7 -18.8°
Reaches altitude 10° 00:26:16 10° 346° (NNW) 2,305 7.0 -18.7°
Maximum altitude 00:31:17 45° 59° (ENE) 1,038 4.5 -18.6°
Drops below altitude 10° 00:36:18 10° 132° (SE) 2,305 5.7 -18.4°
Enters shadow 00:36:24 10° 132° (SE) 2,339 5.7 -18.4°
